GALAXY 16 (G-16)

Last updated on Tue Jul 01 2025 00:02:44 GMT+0000 (Coordinated Universal Time)

1 29236U 06023A 25181.54824568 -.00000127 00000+0 00000+0 0 9991 2 29236 0.0470 224.4007 0002754 240.2705 272.5333 1.00273583 69449
UTC large
Height (km)
Speed (km/s)
/
Latitude / Longitude
Inclination (degrees)
Orbital Period (minutes)
Azimuth
Elevation
Range (km)
Doppler Factor

Next 0 passes for location: London (51.5072 / 0.1276)

Sorry there are no passes over London.